Flag for Germany Weather past 2 weeks in Hennef (Sieg), North Rhine-Westphalia, Germany

Now
35 °F

Passing clouds.


Feels Like: 28 °F
Forecast: 37 / 44 °F
Wind: 8 mph from Southwest

Location: Bonn-Hangelar

Current Time: Mar 3, 2015 at 6:35:20 AM

Latest Report: Mar 3, 2015 at 6:00 AM


Visibility: 19 mi

Pressure: 30.10 "Hg

Humidity: 89%

Dew point: 32 °F

Location of Hennef (Sieg)Location

Historic Weather in Hennef (Sieg) — Graph

°F

Hennef (Sieg) temperature yesterday

Maximum temperature yesterday: 46 °F (at 12:00 AM)
Minimum temperature yesterday: 35 °F (at 8:00 AM)
Average temperature yesterday: 40 °F

Past Weeks' High & Low Weather Summary

 TemperatureHumidityPressure
High49 °F (Mar 1, 1:00 PM)100% (Feb 17, 4:00 AM)30.78 "Hg (Feb 17, 4:00 AM)
Low29 °F (Feb 17, 2:00 AM)54% (Feb 28, 5:00 PM)29.38 "Hg (Feb 21, 3:00 AM)
Average38 °F86%29.96 "Hg
* Reported Feb 16 5:00 AM — Mar 3 5:00 AM, Hennef (Sieg), Weather by CustomWeather, © 2015

Note: Actual official high and low records may vary slightly from our data, if they occured in-between our weather recording intervals... More about our weather records

Advertising

Hennef (Sieg) weather history for previous 24 hours

 ConditionsComfort  
Time TempWeatherWind HumidityBarometerVisibility
5:00 AM
Tue, Mar 3
35 °FOvercast.8 mph88%30.10 "Hg19 mi
4:00 AM35 °FOvercast.9 mph87%30.09 "Hg19 mi
3:00 AM35 °FPassing clouds.8 mph87%30.09 "Hg19 mi
2:00 AM36 °FPassing clouds.9 mph84%30.08 "Hg19 mi
1:00 AM37 °FClear.8 mph81%30.06 "Hg19 mi
12:00 AM37 °FClear.9 mph78%30.04 "Hg22 mi
11:00 PM
Mon, Mar 2
37 °FClear.9 mph76%30.02 "Hg19 mi
10:00 PM38 °FPassing clouds.10 mph75%29.99 "Hg22 mi
9:00 PM37 °FPassing clouds.8 mph76%29.95 "Hg22 mi
8:00 PM36 °FThunderstorms. Passing clouds.9 mph82%29.93 "Hg22 mi
7:00 PM39 °FSprinkles. Overcast.7 mph75%29.89 "Hg25 mi
6:00 PM38 °FPartly sunny.8 mph83%29.85 "Hg22 mi
5:00 PM38 °FThunderstorms. Scattered clouds.10 mph86%29.82 "Hg16 mi
4:00 PM36 °FThundershowers. Low clouds.13 mph92%29.79 "Hg6 mi
3:00 PM39 °FSprinkles. Passing clouds.2 mph89%29.75 "Hg1 mi
2:00 PM44 °FOvercast.9 mph63%29.73 "Hg37 mi
1:00 PM44 °FOvercast.12 mph70%29.74 "Hg37 mi
12:00 PM43 °FPassing clouds.12 mph68%29.73 "Hg37 mi
11:00 AM41 °FPassing clouds.9 mph76%29.73 "Hg28 mi
10:00 AM39 °FPassing clouds.8 mph86%29.72 "Hg28 mi
9:00 AM36 °FPassing clouds.6 mph95%29.70 "Hg28 mi
8:00 AM35 °FThunderstorms. Scattered clouds.6 mph94%29.68 "Hg28 mi
7:00 AM39 °FSprinkles. Overcast.7 mph84%29.63 "Hg22 mi
6:00 AM40 °FOvercast.7 mph85%29.61 "Hg37 mi
Weather by CustomWeather, © 2015

See weather overviewHow to use our weather pages